Mexico City Airport, Mexico

12:54 AM CDT on July 27, 2017 (GMT -0500)
Lic Benito Juarez International

Weather History for MMMX - June, 2011

Change the Weather History Date:

Saturday, June 18, 2011

  Actual Average Record
Temperature  
Mean Temperature 71 °F -  
Max Temperature 82 °F 74 °F 134 °F (2000)
Min Temperature 60 °F 53 °F 50 °F (2002)
Cooling Degree Days 6    
Growing Degree Days 21 (Base 50)    
Moisture  
Dew Point 47 °F    
Average Humidity 46    
Maximum Humidity 72    
Minimum Humidity 19    
Precipitation  
Precipitation 0.00 in - - ()
Sea Level Pressure  
Sea Level Pressure 30.11 in    
Wind  
Wind Speed 6 mph ()    
Max Wind Speed 17 mph    
Max Gust Speed 32 mph    
Visibility 9.1 miles    
Events      
Averages and records for this station are not official NWS values.
T = Trace of Precipitation, MM = Missing Value Source: Averaged Metar Reports

Daily Weather History Graph

Daily Weather History Graph

Search for Another Location

Airport or City:

Trip Planner

Search our weather history database for the weather conditions in past years. The results will help you decide how hot, cold, wet, or windy it might be!

Date:

Astronomy

Jun. 18, 2011 Rise Set
Actual Time 6:58 AM CDT 8:16 PM CDT
Civil Twilight 6:33 AM CDT 8:41 PM CDT
Nautical Twilight 6:04 AM CDT 9:10 PM CDT
Astronomical Twilight 5:34 AM CDT 9:40 PM CDT
Moon 10:50 PM CDT (6/18) 9:38 AM CDT (6/18)
Length of Visible Light 14h 07m
Length of Day
13h 18m
Waning Gibbous, 91% of the Moon is Illuminated
Jun 18
Waning Gibbous
Jun 23
Last Quarter
Jul 1
New
Jul 8
First Quarter
Jul 15
Full

Hourly Weather History & Observations

Time (CDT) Temp. Dew Point Humidity Pressure Visibility Wind Dir Wind Speed Gust Speed Precip Events Conditions
12:44 AM 64.4 °F 51.8 °F 64% 29.69 in 12.0 mi NNW 5.8 mph - N/A   Scattered Clouds
1:56 AM 64.4 °F 51.8 °F 64% 30.29 in 12.0 mi North 6.9 mph - N/A   Scattered Clouds
2:45 AM 64.4 °F 51.8 °F 64% 30.27 in 12.0 mi West 9.2 mph - N/A   Mostly Cloudy
3:45 AM 62.6 °F 50.0 °F 63% 29.65 in 12.0 mi West 9.2 mph - N/A   Mostly Cloudy
4:45 AM 62.6 °F 50.0 °F 63% 30.27 in 12.0 mi NW 3.5 mph - N/A   Scattered Clouds
5:45 AM 60.8 °F 48.2 °F 63% 30.27 in 12.0 mi Calm Calm - N/A   Partly Cloudy
6:45 AM 60.8 °F 50.0 °F 68% 29.70 in 10.0 mi West 5.8 mph - N/A   Partly Cloudy
7:22 AM 60.8 °F 51.8 °F 72% 30.28 in 7.0 mi WSW 5.8 mph - N/A   Clear
7:45 AM 60.8 °F 51.8 °F 72% 30.28 in 7.0 mi West 5.8 mph - N/A   Clear
8:21 AM 62.6 °F 50.0 °F 63% 30.30 in 7.0 mi West 5.8 mph - N/A   Clear
8:47 AM 62.6 °F 48.2 °F 59% 30.30 in 7.0 mi Calm Calm - N/A   Clear
9:07 AM 66.2 °F 51.8 °F 60% 30.30 in 6.0 mi Calm Calm - N/A   Clear
9:21 AM 66.2 °F 50.0 °F 56% 30.30 in 6.0 mi Calm Calm - N/A   Clear
9:44 AM 68.0 °F 50.0 °F 52% 29.71 in 6.0 mi Calm Calm - N/A   Clear
10:21 AM 69.8 °F 48.2 °F 46% 30.31 in 6.0 mi East 3.5 mph - N/A   Partly Cloudy
10:43 AM 69.8 °F 50.0 °F 49% 30.31 in 6.0 mi Calm Calm - N/A   Partly Cloudy
11:36 AM 73.4 °F 46.4 °F 38% 30.29 in 6.0 mi ENE 5.8 mph - N/A   Partly Cloudy
11:47 AM 73.4 °F 46.4 °F 38% 30.29 in 6.0 mi NNE 4.6 mph - N/A   Partly Cloudy
12:31 PM 77.0 °F 42.8 °F 29% 30.27 in 6.0 mi North 5.8 mph - N/A   Partly Cloudy
12:44 PM 77.0 °F 41.0 °F 28% 29.68 in 6.0 mi Calm Calm - N/A   Scattered Clouds
1:35 PM 80.6 °F 41.0 °F 24% 30.24 in 6.0 mi North 3.5 mph - N/A   Mostly Cloudy
1:46 PM 80.6 °F 39.2 °F 23% 30.23 in 6.0 mi NE 6.9 mph - N/A   Mostly Cloudy
2:49 PM 82.4 °F 35.6 °F 19% 30.20 in 8.0 mi NE 6.9 mph - N/A   Mostly Cloudy
2:52 PM 82.4 °F 35.6 °F 19% 30.20 in 8.0 mi NE 6.9 mph - N/A   Mostly Cloudy
3:47 PM 82.4 °F 42.8 °F 25% 29.57 in 10.0 mi ESE 16.1 mph - N/A   Mostly Cloudy
4:49 PM 82.4 °F 41.0 °F 23% 30.16 in 10.0 mi SE 5.8 mph - N/A   Mostly Cloudy
5:46 PM 80.6 °F 42.8 °F 26% 30.15 in 10.0 mi East 12.7 mph - N/A   Mostly Cloudy
6:48 PM 80.6 °F 42.8 °F 26% 29.57 in 10.0 mi East 11.5 mph - N/A   Mostly Cloudy
7:20 PM 77.0 °F 44.6 °F 32% 30.16 in 10.0 mi ESE 16.1 mph 32.2 mph N/A   Mostly Cloudy
7:46 PM 75.2 °F 44.6 °F 34% 30.17 in 10.0 mi ESE 13.8 mph - N/A   Mostly Cloudy
8:45 PM 73.4 °F 44.6 °F 36% 30.20 in 12.0 mi ENE 10.4 mph - N/A   Mostly Cloudy
9:45 PM 69.8 °F 48.2 °F 46% 29.65 in 15.0 mi NE 16.1 mph - N/A   Mostly Cloudy
10:47 PM 68.0 °F 50.0 °F 52% 30.27 in 15.0 mi North 17.3 mph - N/A   Mostly Cloudy
11:45 PM 68.0 °F 50.0 °F 52% 30.29 in 15.0 mi North 15.0 mph - N/A   Mostly Cloudy